IAVONS21 Weather Reports


Display with metric or nautical units.
time (UTC)temp
F
wind
direction
speed
MPH
gust
MPH
rain 1hr
in
rain 24hr
in
rain mn
in
humidity
%
barometer
mb
20260503225010 52 6 2.0 9.0 0.01 0.31 0.18 90 1015.8
20260503224526 52 324 3.0 10.0 0.01 0.31 0.18 90 1015.7
20260503224009 51 358 3.0 10.0 0.01 0.31 0.18 90 1015.7
20260503223511 51 334 2.0 10.0 0.01 0.31 0.18 90 1015.5
20260503223035 51 293 5.0 10.0 0.01 0.31 0.18 90 1015.6
20260503222507 51 323 3.0 9.0 0.01 0.31 0.18 90 1015.7
20260503222008 51 314 1.0 9.0 0.01 0.31 0.18 90 1015.7
20260503221517 51 296 3.0 10.0 0.01 0.31 0.18 90 1015.7
20260503221009 52 3 3.0 11.0 0.01 0.31 0.18 89 1015.7
20260503220509 52 330 4.0 11.0 0.01 0.31 0.18 89 1015.5
20260503220020 52 353 3.0 10.0 0.00 0.29 0.16 89 1015.4
20260503215512 52 320 3.0 8.0 0.00 0.29 0.16 90 1015.3
20260503215008 52 324 1.0 8.0 0.00 0.29 0.16 90 1015.3
20260503214527 52 339 2.0 8.0 0.00 0.29 0.16 90 1015.1
20260503214014 52 360 2.0 7.0 0.00 0.29 0.16 91 1015.1
20260503213514 52 14 2.0 8.0 0.00 0.29 0.16 92 1015.2
20260503213024 52 353 1.0 8.0 0.00 0.29 0.16 92 1015.1
20260503212508 51 358 2.0 8.0 0.00 0.29 0.16 92 1015.1
20260503212012 51 357 3.0 10.0 0.00 0.29 0.16 92 1015.1
20260503211527 51 3 3.0 10.0 0.00 0.29 0.16 92 1015.0
20260503211007 51 357 2.0 7.0 0.00 0.29 0.16 92 1015.0
20260503210511 51 302 1.0 8.0 0.00 0.29 0.16 91 1014.9
20260503210020 51 14 3.0 9.0 0.00 0.29 0.16 91 1014.8
20260503205509 51 337 3.0 9.0 0.00 0.29 0.16 91 1014.8
20260503205009 51 360 3.0 7.0 0.00 0.29 0.16 91 1014.8
20260503204522 51 358 2.0 10.0 0.00 0.29 0.16 91 1014.9
20260503204009 52 9 2.0 10.0 0.00 0.29 0.16 91 1014.8
20260503203513 51 358 3.0 9.0 0.00 0.29 0.16 91 1014.8
20260503203038 51 10 4.0 10.0 0.00 0.29 0.16 91 1014.7
20260503202511 51 29 4.0 10.0 0.00 0.29 0.16 91 1014.7
20260503202010 51 10 4.0 10.0 0.00 0.29 0.16 91 1014.6
20260503201532 51 16 4.0 10.0 0.00 0.29 0.16 91 1014.7
20260503201010 51 16 4.0 9.0 0.00 0.29 0.16 91 1014.8
20260503200511 51 33 2.0 6.0 0.00 0.29 0.16 91 1014.8
20260503200026 51 327 2.0 6.0 0.00 0.29 0.16 91 1014.8
20260503195512 51 348 1.0 5.0 0.00 0.29 0.16 90 1014.6
20260503195011 51 306 2.0 7.0 0.00 0.29 0.16 90 1014.6
20260503194522 51 351 2.0 8.0 0.00 0.29 0.16 90 1014.6
20260503194010 51 356 3.0 8.0 0.00 0.29 0.16 90 1014.4
20260503193505 51 353 3.0 9.0 0.00 0.29 0.16 90 1014.5
20260503193008 51 320 2.0 9.0 0.00 0.29 0.16 90 1014.3
20260503192504 51 20 3.0 11.0 0.00 0.29 0.16 90 1014.5
20260503192002 51 344 4.0 11.0 0.00 0.29 0.16 90 1014.3
20260503191510 51 314 3.0 11.0 0.00 0.29 0.16 89 1014.2
20260503191005 51 317 3.0 11.0 0.00 0.29 0.16 90 1014.2
20260503190507 51 10 3.0 9.0 0.00 0.29 0.16 90 1014.3
20260503190012 52 359 4.0 11.0 0.00 0.29 0.16 90 1014.3
20260503185507 52 40 3.0 11.0 0.00 0.29 0.16 90 1014.4
20260503185006 52 359 3.0 10.0 0.00 0.29 0.16 90 1014.3
20260503184519 52 8 3.0 10.0 0.00 0.29 0.16 90 1014.3
20260503184008 52 8 4.0 10.0 0.00 0.29 0.16 90 1014.3
20260503183511 52 336 6.0 11.0 0.00 0.29 0.16 90 1014.3
20260503183028 52 8 6.0 12.0 0.00 0.29 0.16 90 1014.2
20260503182513 52 8 5.0 13.0 0.00 0.29 0.16 90 1014.2
20260503182003 52 31 7.0 16.0 0.00 0.29 0.16 90 1014.2
20260503181505 51 18 7.0 16.0 0.00 0.29 0.16 90 1014.3
20260503181003 51 22 4.0 11.0 0.00 0.29 0.16 89 1014.3
20260503180508 51 8 4.0 11.0 0.00 0.29 0.16 90 1014.2
20260503180022 51 354 3.0 10.0 0.01 0.29 0.16 90 1014.3
20260503175507 51 321 2.0 11.0 0.02 0.29 0.16 90 1014.4
20260503175007 51 359 3.0 15.0 0.03 0.29 0.16 90 1014.5
20260503174516 51 54 5.0 15.0 0.03 0.29 0.16 90 1014.4
20260503174010 51 11 4.0 14.0 0.03 0.29 0.16 90 1014.5
20260503173508 51 355 6.0 14.0 0.03 0.29 0.16 90 1014.6
20260503173038 50 4 7.0 14.0 0.03 0.29 0.16 90 1014.6
20260503172510 50 16 3.0 7.0 0.03 0.29 0.16 90 1014.5
20260503172009 50 10 2.0 8.0 0.03 0.29 0.16 89 1014.5
20260503171533 50 339 3.0 8.0 0.03 0.29 0.15 89 1014.8
20260503171009 50 300 1.0 5.0 0.03 0.29 0.15 89 1014.8
20260503170509 50 2 1.0 9.0 0.04 0.29 0.15 88 1014.4
20260503151003 52 342 5.0 13.0 0.05 0.19 0.06 92 1016.2
20260503150503 52 299 4.0 11.0 0.05 0.18 0.05 92 1016.3
20260503131005 53 4 3.0 10.0 0.02 0.07 0.07 91 1017.0
20260503130502 53 338 4.0 10.0 0.02 0.07 0.07 91 1017.0
20260503110507 54 329 5.0 14.0 0.01 0.01 0.01 90 1017.7
20260503090507 56 333 5.0 11.0 0.00 0.00 0.00 85 1018.1
20260503081522 56 347 2.0 9.0 0.00 0.00 0.00 84 1017.9
20260503081010 56 317 5.0 10.0 0.00 0.00 0.00 84 1017.8
20260503080508 56 15 4.0 10.0 0.00 0.00 0.00 83 1017.8
20260503072510 57 341 2.0 11.0 0.00 0.00 0.00 81 1017.8
20260503072010 57 295 4.0 10.0 0.00 0.00 0.00 81 1017.7
20260503071517 57 320 3.0 18.0 0.00 0.00 0.00 80 1017.6
20260503071007 57 274 5.0 18.0 0.00 0.00 0.00 80 1017.7
20260503070507 57 303 4.0 18.0 0.00 0.00 0.00 80 1017.8
20260503055008 57 257 6.0 15.0 0.00 0.00 0.00 83 1018.2
20260503054520 57 283 5.0 14.0 0.00 0.00 0.00 83 1018.4
20260503054010 57 218 5.0 15.0 0.00 0.00 0.00 83 1018.4
20260503053507 57 283 5.0 19.0 0.00 0.00 0.00 83 1018.5
20260503053020 57 318 7.0 19.0 0.00 0.00 0.00 82 1018.6
20260503052506 58 291 5.0 15.0 0.00 0.00 0.00 82 1018.6
20260503052009 57 247 5.0 15.0 0.00 0.00 0.00 82 1018.5
20260503051525 57 309 4.0 13.0 0.00 0.00 0.00 83 1018.5
20260503051007 57 309 6.0 13.0 0.00 0.00 0.00 83 1018.6
20260503050506 57 343 5.0 13.0 0.00 0.00 0.00 84 1018.6
20260503050019 57 291 5.0 12.0 0.00 0.00 0.00 85 1018.6
20260503045507 57 299 4.0 12.0 0.00 0.00 0.00 85 1018.6
20260503045010 57 312 4.0 11.0 0.00 0.00 0.00 84 1018.6
20260503044528 57 247 5.0 12.0 0.00 0.00 0.00 83 1018.7
20260503044012 58 322 6.0 13.0 0.00 0.00 0.00 82 1018.6
20260503043510 58 344 5.0 13.0 0.00 0.00 0.00 81 1018.7
20260503043022 58 311 3.0 11.0 0.00 0.00 0.00 81 1018.6
20260503042510 57 312 4.0 14.0 0.00 0.00 0.00 81 1018.6
20260503042011 57 35 5.0 15.0 0.00 0.00 0.00 81 1018.6
20260503041522 57 274 7.0 16.0 0.00 0.00 0.00 80 1018.6
20260503041006 58 320 4.0 16.0 0.00 0.00 0.00 80 1018.8
20260503040508 58 274 4.0 15.0 0.00 0.00 0.00 79 1018.9
20260503040030 58 345 6.0 15.0 0.00 0.00 0.00 78 1018.8
20260503035508 59 317 6.0 17.0 0.00 0.00 0.00 77 1018.8
20260503035009 59 318 8.0 17.0 0.00 0.00 0.00 77 1018.8
20260503034522 59 274 6.0 15.0 0.00 0.00 0.00 77 1018.7
20260503034012 59 14 5.0 14.0 0.00 0.00 0.00 77 1018.8
20260503033509 59 318 5.0 14.0 0.00 0.00 0.00 78 1018.9
20260503033045 59 311 4.0 16.0 0.00 0.00 0.00 78 1019.2
20260503032510 59 303 4.0 20.0 0.00 0.00 0.00 78 1019.1
20260503032010 59 328 4.0 20.0 0.00 0.00 0.00 77 1019.2
20260503031533 59 345 5.0 17.0 0.00 0.00 0.00 77 1019.3
20260503031009 59 287 6.0 16.0 0.00 0.00 0.00 77 1019.3
20260503030510 59 335 7.0 19.0 0.00 0.00 0.00 76 1019.4
20260503030027 59 316 8.0 19.0 0.00 0.00 0.00 76 1019.4
20260503025507 59 281 6.0 22.0 0.00 0.00 0.00 76 1019.3
20260503025011 59 341 9.0 22.0 0.00 0.00 0.00 75 1019.4
20260503024526 59 299 8.0 19.0 0.00 0.00 0.00 76 1019.3
20260503024009 59 287 6.0 19.0 0.00 0.00 0.00 76 1019.4
20260503023510 59 355 7.0 17.0 0.00 0.00 0.00 76 1019.3
20260503023040 59 337 5.0 23.0 0.00 0.00 0.00 76 1019.4
20260503022509 59 354 10.0 23.0 0.00 0.00 0.00 76 1019.5
20260503022016 59 351 7.0 16.0 0.00 0.00 0.00 76 1019.6
20260503021525 59 4 7.0 21.0 0.00 0.00 0.00 75 1019.8
20260503021011 60 355 8.0 21.0 0.00 0.00 0.00 73 1019.8
20260503020512 61 286 6.0 18.0 0.00 0.00 0.00 72 1019.9
20260503020026 62 61 7.0 17.0 0.00 0.00 0.00 71 1020.0
20260503015510 61 311 6.0 17.0 0.00 0.00 0.00 72 1020.0
20260503015012 61 331 6.0 17.0 0.00 0.00 0.00 72 1020.0
20260503014514 60 329 8.0 20.0 0.00 0.00 0.00 73 1020.1
20260503014008 60 339 6.0 20.0 0.00 0.00 0.00 73 1020.1
20260503013509 60 308 8.0 18.0 0.00 0.00 0.00 72 1020.0
20260503013020 60 333 6.0 18.0 0.00 0.00 0.00 72 1020.2
20260503012512 60 309 5.0 18.0 0.00 0.00 0.00 73 1020.3
20260503012011 59 333 9.0 19.0 0.00 0.00 0.00 73 1020.4
20260503011524 59 315 6.0 19.0 0.00 0.00 0.00 74 1020.4
20260503011009 59 327 8.0 19.0 0.00 0.00 0.00 74 1020.5
20260503010509 59 341 6.0 13.0 0.00 0.00 0.00 75 1020.6
20260503010012 59 3 5.0 13.0 0.00 0.00 0.00 74 1020.5
20260503005505 59 1 6.0 17.0 0.00 0.00 0.00 74 1020.7
20260503005010 60 281 5.0 17.0 0.00 0.00 0.00 74 1020.8
20260503004513 60 310 4.0 18.0 0.00 0.00 0.00 74 1020.8
20260503004009 60 326 5.0 18.0 0.00 0.00 0.00 74 1020.9
20260503003505 60 36 4.0 16.0 0.00 0.00 0.00 74 1020.9
20260503003021 60 346 7.0 16.0 0.00 0.00 0.00 74 1020.9
20260503002514 60 326 3.0 11.0 0.00 0.00 0.00 75 1021.0
20260503002009 60 266 4.0 24.0 0.00 0.00 0.00 74 1021.0
20260503001522 60 304 4.0 24.0 0.00 0.00 0.00 74 1021.1
20260503001009 60 329 6.0 24.0 0.00 0.00 0.00 74 1021.1
20260503000508 60 353 4.0 14.0 0.00 0.00 0.00 74 1021.3
20260503000026 60 360 3.0 14.0 0.00 0.00 0.00 75 1021.2
20260502235508 60 293 6.0 14.0 0.00 0.00 0.00 75 1021.0
20260502235005 59 321 4.0 12.0 0.00 0.00 0.00 77 1021.1
20260502234510 59 317 3.0 12.0 0.00 0.00 0.00 78 1021.4
20260502234009 58 330 4.0 12.0 0.00 0.00 0.00 79 1021.4
20260502233513 57 335 2.0 12.0 0.00 0.00 0.00 80 1021.4
20260502233016 57 285 4.0 12.0 0.00 0.00 0.00 80 1021.4
20260502232505 57 2 4.0 12.0 0.00 0.00 0.00 80 1021.5
20260502232008 56 20 6.0 12.0 0.00 0.00 0.00 81 1021.5
20260502231523 56 324 4.0 12.0 0.00 0.00 0.00 81 1021.5
20260502231006 56 16 5.0 12.0 0.00 0.00 0.00 81 1021.4
20260502230509 56 352 6.0 10.0 0.00 0.00 0.00 80 1021.5
20260502230029 57 25 4.0 11.0 0.00 0.00 0.00 80 1021.4
20260502225510 57 213 3.0 11.0 0.00 0.00 0.00 81 1021.5